Regional Weather Roundup
Issued by NWS Newport/Morehead, NC

Current Version | Previous Version | Text Only | Print | Product List | Glossary Off
Versions: 1 2 3 4 5 6 7 8 9 10 11 12 13 14 15 16 17 18 19 20 21 22 23 24 25 26 27 28 29 30 31 32 33 34 35 36 37 38 39 40 41 42 43 44 45 46 47 48 49 50
000 ASUS42 KMHX 201822 RWRMHX WEATHER ROUNDUP FOR EASTERN NORTH CAROLINA NATIONAL WEATHER SERVICE NEWPORT/MOREHEAD CITY NC 200 PM EDT WED AUG 20 2014 NOTE: "FAIR" INDICATES FEW OR NO CLOUDS BELOW 12,000 FEET WITH NO SIGNIFICANT WEATHER AND/OR OBSTRUCTIONS TO VISIBILITY NCZ015>017-031-032-045>047-102-103-201900- NORTH COAST CITY SKY/WX TMP DP RH WIND PRES REMARKS EDENTON MOSUNNY 83 73 69 S6 29.97F ELIZABETH CITY SUNNY 84 70 62 NE8 29.98S KITTY HAWK PTCLDY 81 71 73 N5 29.97S MANTEO CLOUDY 81 72 74 NE8 29.98F $$ NCZ045>047-081-094-103-104-201900- CENTRAL COAST CITY SKY/WX TMP DP RH WIND PRES REMARKS FRISCO MOSUNNY 83 74 74 VRB6 29.97R SWANQUARTER N/A 81 N/A N/A SE3G9 29.94S $$ NCZ095-097-098-100-101-201900- SOUTHERN COAST CITY SKY/WX TMP DP RH WIND PRES REMARKS BEAUFORT SUNNY 87 73 62 NW6 29.98S CEDAR ISLAND N/A 84 N/A N/A NE3 30.00F JACKSONVILLE PTSUNNY 88 73 61 VRB7 29.97F NEWPORT NOT AVBL PINEY ISLAND MOCLDY 85 75 72 NE9 29.97S WILMINGTON HVY RAIN 80 76 87 S17 29.97F FOG $$ NCZ011>013-027>030-043-044-078>080-089-090>093-098-201900- COASTAL PLAIN CITY SKY/WX TMP DP RH WIND PRES REMARKS AHOSKIE MOSUNNY 83 70 63 CALM 29.97F CLINTON SUNNY 87 75 67 CALM 29.97F ELIZABETHTOWN PTSUNNY 83 74 73 SW7 29.98R GOLDSBORO MOSUNNY 86 76 71 VRB3 29.96F GREENVILLE MOSUNNY 86 72 62 N5 30.00F HAVELOCK MOSUNNY 87 71 58 N3 29.99S KENANSVILLE MOSUNNY 87 70 57 NE3 29.98F KINSTON MOSUNNY 86 72 62 NE5 29.99F NEW BERN MOSUNNY 87 72 60 N8 29.99S RICHLANDS MOSUNNY 86 72 62 CALM 29.97F ROANOKE RAPIDS NOT AVBL ROCKY MOUNT MOSUNNY 86 71 60 VRB3 29.98F WASHINGTON MOSUNNY 83 71 67 CALM 29.98S WHITEVILLE PTSUNNY 82 72 70 E5 29.97R $$ AMZ130-135-150-152-154-156-158-170-250-252-270-ANZ085-086-088-633-658-670-201900- MARINE OBSERVATIONS STATION/POSITION TIME TEMP WIND PRES WAVE SWELL AIR SEA DIR/SP/G HT/PER HT/PER (UTC) (F) (DEG/KT/KT) (MB) (FT/S) (FT/S) CHESAPEAKE LIGHT 1800 76 40/ 8/ 9 1016.2 BUOY 44014 1800 77 78 40/ 10/ 12 1014.6 3/ 5 3/ 5 DUCK 1800 77 79 10/ 8/ 9 1014.8 2E DUCK 1800 N/A 3/ 6 OREGON INLET 1800 80 81 20/ 7/ 11 1014.9 BUOY 44095 1800 80 N/A 3/ 5 20E OREGON INLET NOT AVBL HATTERAS CG 1800 81 82 10/ 8/ 10 1015.2 DIAMOND BUOY 1800 78 310/ 8/ 10 1014.4 2/ 7 2/ 7 CAPE LOOKOUT 1800 81 130/ 6/ 7 1015.2 BEAUFORT LAB 1800 85 82 340/ 4/ 7 1014.8 30 SE NEW RIVER 1800 81 84 CALM / 2 1015.0 3/ 6 3/ 6 5 SE WRIGHTSVILL 1800 78 83 170/ 10/ 12 N/A BUOY 41002 1705 79 81 250/ 12/ 14 1017.5 6/ 7 5/ 7 BUOY 41004 1800 82 84 230/ 10/ 12 1015.5 3/ 6 2/ 6 $$

USA.gov is the U.S. government's official web portal to all federal, state and local government web resources and services.